| time (UTC) | temp F | wind direction | speed MPH | gust MPH | rain 1hr in | rain 24hr in | rain mn in | humidity % | barometer mb |
| 20260507230308 | 50 | 180 | 0.0 | 0.0 | 0.00 | 0.00 | 0.00 | 100 | 1013.7 |
| 20260507215708 | 52 | 180 | 0.0 | 0.0 | 0.00 | 0.00 | 0.00 | 100 | 1013.7 |
| 20260507205109 | 54 | 178 | 1.0 | 3.0 | 0.00 | 0.00 | 0.00 | 92 | 1013.4 |
| 20260507194510 | 56 | 159 | 1.0 | 3.0 | 0.00 | 0.00 | 0.00 | 77 | 1012.5 |
| 20260507184304 | 59 | 310 | 3.0 | 9.0 | 0.00 | 0.00 | 0.00 | 69 | 1011.7 |
| 20260507184043 | 60 | 333 | 3.0 | 7.0 | 0.00 | 0.00 | 0.00 | 69 | 1011.8 |
| 20260507183911 | 60 | 333 | 3.0 | 7.0 | 0.00 | 0.00 | 0.00 | 69 | 1011.8 |
| 20260507173705 | 62 | 337 | 2.0 | 4.0 | 0.00 | 0.00 | 0.00 | 59 | 1010.7 |
| 20260507173312 | 63 | 304 | 1.0 | 5.0 | 0.00 | 0.00 | 0.00 | 58 | 1010.7 |
| 20260507163105 | 70 | 283 | 10.0 | 12.0 | 0.00 | 0.00 | 0.00 | 41 | 1010.1 |
| 20260507152506 | 67 | 301 | 2.0 | 7.0 | 0.00 | 0.00 | 0.00 | 47 | 1009.8 |
| 20260507141907 | 72 | 270 | 4.0 | 4.0 | 0.00 | 0.00 | 0.00 | 41 | 1009.5 |
| 20260507131308 | 74 | 297 | 5.0 | 7.0 | 0.00 | 0.00 | 0.00 | 39 | 1009.8 |
| 20260507121102 | 70 | 309 | 4.0 | 10.0 | 0.00 | 0.00 | 0.00 | 46 | 1009.8 |
| 20260507120709 | 69 | 292 | 6.0 | 10.0 | 0.00 | 0.00 | 0.00 | 47 | 1009.9 |
| 20260507110503 | 66 | 296 | 6.0 | 11.0 | 0.00 | 0.00 | 0.00 | 51 | 1010.0 |
| 20260507095903 | 67 | 278 | 7.0 | 11.0 | 0.00 | 0.00 | 0.00 | 51 | 1009.8 |
| 20260507085306 | 68 | 335 | 4.0 | 10.0 | 0.00 | 0.00 | 0.00 | 52 | 1009.2 |
| 20260507074705 | 66 | 312 | 5.0 | 13.0 | 0.00 | 0.00 | 0.00 | 54 | 1008.9 |
| 20260507064458 | 60 | 211 | 4.0 | 10.0 | 0.00 | 0.00 | 0.00 | 100 | 1009.0 |
| 20260507064106 | 60 | 289 | 8.0 | 10.0 | 0.00 | 0.00 | 0.00 | 100 | 1009.1 |
| 20260507053859 | 56 | 184 | 5.0 | 7.0 | 0.00 | 0.00 | 0.00 | 100 | 1008.8 |
| 20260507053507 | 56 | 112 | 1.0 | 1.0 | 0.00 | 0.00 | 0.00 | 100 | 1008.8 |
| 20260507043340 | 53 | 135 | 1.0 | 1.0 | 0.00 | 0.00 | 0.00 | 100 | 1008.0 |
| 20260507042947 | 54 | 118 | 0.0 | 0.0 | 0.00 | 0.00 | 0.00 | 100 | 1008.0 |
| 20260507032820 | 55 | 283 | 4.0 | 8.0 | 0.00 | 0.00 | 0.00 | 100 | 1007.5 |
| 20260507032427 | 55 | 114 | 1.0 | 1.0 | 0.00 | 0.00 | 0.00 | 100 | 1007.4 |
| 20260507022300 | 56 | 270 | 2.0 | 4.0 | 0.00 | 0.00 | 0.00 | 100 | 1007.1 |
| 20260507021907 | 56 | 112 | 0.0 | 0.0 | 0.00 | 0.00 | 0.00 | 100 | 1007.0 |
| 20260507011840 | 57 | 337 | 3.0 | 6.0 | 0.00 | 0.00 | 0.00 | 100 | 1006.6 |
| 20260507011740 | 57 | 337 | 3.0 | 6.0 | 0.00 | 0.00 | 0.00 | 100 | 1006.6 |
| 20260507011347 | 57 | 122 | 1.0 | 1.0 | 0.00 | 0.00 | 0.00 | 100 | 1006.5 |
| 20260507001220 | 58 | 292 | 3.0 | 11.0 | 0.00 | 0.00 | 0.00 | 100 | 1006.3 |
| 20260507000828 | 57 | 114 | 2.0 | 2.0 | 0.00 | 0.00 | 0.00 | 100 | 1006.2 |